Weather Roundup
Issued by NWS Springfield, MO

Home | Current Version | Previous Version | Text Only | Print | Product List | Glossary On
Versions: 1 2 3 4 5 6 7 8 9 10 11 12 13 14 15 16 17 18 19 20 21 22 23 24 25 26 27 28 29 30 31 32 33 34 35 36 37 38 39 40 41 42 43 44 45 46 47 48 49 50
000
NZUS99 KSGF 301507
HRRSGF

HOURLY WEATHER
NATIONAL WEATHER SERVICE SPRINGFIELD MO
900 AM CST FRI JAN 30 2015

......SGF CWA......

CITY           SKY/WX    TMP DP  RH WIND       PRES   REMARKS
SPRINGFIELD    MOSUNNY   28  23  81 NE8       30.51R WCI  20
JOPLIN         MOSUNNY   28  24  85 NE3       30.54S
WEST PLAINS    SUNNY     30  23  75 N9        30.50R WCI  22
ROLLA          PTSUNNY   26  20  77 NE6       30.51R WCI  19
OSAGE BEACH    SUNNY     27  19  74 N7        30.55R WCI  19
BRANSON        PTSUNNY   32  28  86 NE3       30.52S

......SURROUNDING SGF CWA......

CITY           SKY/WX    TMP DP  RH WIND       PRES   REMARKS
CHANUTE        PTSUNNY   26  24  92 CALM      30.55R
PARSONS        PTSUNNY   28  25  88 CALM      30.57R
COFFEYVILLE    MOSUNNY   28  24  85 N5        30.57R WCI  23
EMPORIA        CLOUDY    23  22  96 CALM      30.53F
GROVE OK       SUNNY     30  30 100 CALM      30.55S
ROGERS AR      MOSUNNY   32  26  78 E8        30.51R WCI  25
SILOAM SPRINGS MOSUNNY   30  21  69 E5        30.52S WCI  25
HARRISON AR    SUNNY     31  25  78 N5        30.51R WCI  26
NEAR YELLVILLE SUNNY     34  23  64 N5        30.54R WCI  30

......KANSAS AND MISSOURI......

CITY           SKY/WX    TMP DP  RH WIND       PRES   REMARKS
KANSAS CTY INT PTSUNNY   25  21  85 NE7       30.54R WCI  17
DOWNTOWN KC    SUNNY     27  21  78 E7        30.56R WCI  19
COLUMBIA       SUNNY     26  20  77 E7        30.55R WCI  18
SEDALIA        SUNNY     27  21  78 NE7       30.56R WCI  19
ST JOSEPH      MOSUNNY   23  20  88 CALM      30.57R
ST LOUIS       MOSUNNY   30  17  58 N10       30.56R WCI  21
SPIRIT OF STL  MOSUNNY   29  18  63 NE6       30.56R WCI  23
KIRKSVILLE     SUNNY     23  18  81 NE6       30.55R WCI  16
WICHITA        CLOUDY    30  25  81 CALM      30.53F
TOPEKA         MOSUNNY   23  20  88 W5        30.58R WCI  17
OLATHE         SUNNY     26  22  84 NE6       30.54R WCI  19

......TENNESSEE......

CITY           SKY/WX    TMP DP  RH WIND       PRES   REMARKS
MEMPHIS        MOSUNNY   40  27  59 NE10      30.50R WCI  33
NASHVILLE      PTSUNNY   38  21  50 N10       30.48R WCI  31

......ARKANSAS.......

CITY           SKY/WX    TMP DP  RH WIND       PRES   REMARKS
FAYETTEVILLE   MOSUNNY   29  25  85 CALM      30.51R
FT SMITH       MOSUNNY   35  29  78 CALM      30.54R
LITTLE ROCK    MOSUNNY   40  27  59 NE9       30.54R WCI  34

......OKLAHOMA.......

CITY           SKY/WX    TMP DP  RH WIND       PRES   REMARKS
TULSA          PTSUNNY   31  28  89 N5        30.57R WCI  26
PONCA CITY     MOSUNNY   29  25  85 NE3       30.56S
MCALESTER      PTSUNNY   38  31  76 NE6       30.52R WCI  33
OKLAHOMA CITY  PTSUNNY   38  27  64 NE6       30.52S WCI  33

......IOWA............

CITY           SKY/WX    TMP DP  RH WIND       PRES   REMARKS
DES MOINES     MOSUNNY   21  13  71 NE3       30.56R
QUAD CITIES    SUNNY     22  11  62 NE3       30.56R

......ILLINOIS........

CITY           SKY/WX    TMP DP  RH WIND       PRES   REMARKS
QUINCY         SUNNY     25  17  72 N9        30.55R WCI  15
CHICAGO        MOSUNNY   22   9  57 N9        30.50F WCI  12



USA.gov is the U.S. government's official web portal to all federal, state and local government web resources and services.